McGrath, AK

3:45 PM AKDT on June 25, 2017 (GMT -0800)
McGrath

Weather History for PAMC - July, 2014

Change the Weather History Date:

Tuesday, July 22, 2014

  Actual Average Record
Temperature  
Mean Temperature 58 °F 60 °F  
Max Temperature 61 °F 68 °F 86 °F (1955)
Min Temperature 54 °F 51 °F 37 °F (1999)
Degree Days  
Heating Degree Days 7    
Month to date heating degree days 103 113  
Since 1 June heating degree days 408 347  
Since 1 July heating degree days 103 113  
Cooling Degree Days 0    
Month to date cooling degree days 11 11  
Year to date cooling degree days 11 16  
Since 1 June cooling degree days 11 16  
Growing Degree Days 6 (Base 50)    
Moisture  
Dew Point 52 °F    
Average Humidity 85    
Maximum Humidity 97    
Minimum Humidity 62    
Precipitation  
Precipitation 0.38 in 0.08 in 0.95 in (1995)
Month to date precipitation 1.59 1.61  
Year to date precipitation 5.84 7.80  
Snow  
Snow 0.00 in 0.00 in 0.00 in (2016)
Month to date snowfall 0.0 0.0  
Since 1 June snowfall 0.0 0.0  
Since 1 July snowfall 0.0 0.0  
Snow Depth 0.00 in    
Sea Level Pressure  
Sea Level Pressure 29.86 in    
Wind  
Wind Speed 3 mph (SSW)    
Max Wind Speed 12 mph    
Max Gust Speed 16 mph    
Visibility 9 miles    
Events Rain    
T = Trace of Precipitation, MM = Missing Value Source: NWS Daily Summary

Daily Weather History Graph

Daily Weather History Graph

Search for Another Location

Airport or City:

Trip Planner

Search our weather history database for the weather conditions in past years. The results will help you decide how hot, cold, wet, or windy it might be!

Date:

Astronomy

Jul. 22, 2014 Rise Set
Actual Time 5:12 AM AKDT 11:43 PM AKDT
Civil Twilight 3:28 AM AKDT 1:23 AM AKDT
Nautical Twilight Sun does not set Sun does not set
Astronomical Twilight Sun does not set Sun does not set
Moon 2:13 AM AKDT (7/22) 8:16 PM AKDT (7/22)
Length of Visible Light 21h 55m
Length of Day
18h 30m
Waning Crescent, 15% of the Moon is Illuminated
Jul 22
Waning Crescent
Jul 26
New
Aug 3
First Quarter
Aug 10
Full
Aug 17
Last Quarter

Hourly Weather History & Observations

Time (AKDT) Temp. Dew Point Humidity Pressure Visibility Wind Dir Wind Speed Gust Speed Precip Events Conditions
12:53 AM 61.0 °F 48.0 °F 62% 29.94 in 10.0 mi Calm Calm - N/A   Overcast
1:53 AM 59.0 °F 51.1 °F 75% 29.94 in 10.0 mi Calm Calm - 0.00 in Rain Light Rain
2:53 AM 57.0 °F 51.1 °F 81% 29.94 in 4.0 mi WSW 3.5 mph - 0.05 in Rain Light Rain
3:53 AM 55.0 °F 53.1 °F 93% 29.93 in 7.0 mi Calm Calm - 0.12 in Rain Light Rain
4:53 AM 55.0 °F 53.1 °F 93% 29.92 in 10.0 mi SSE 4.6 mph - 0.05 in Rain Light Rain
5:53 AM 55.9 °F 53.1 °F 90% 29.91 in 10.0 mi Calm Calm - 0.03 in Rain Light Rain
6:53 AM 54.0 °F 53.1 °F 97% 29.88 in 10.0 mi East 4.6 mph - 0.00 in   Overcast
7:53 AM 54.0 °F 53.1 °F 97% 29.88 in 10.0 mi Calm Calm - N/A   Overcast
8:53 AM 55.0 °F 53.1 °F 93% 29.88 in 10.0 mi SE 4.6 mph - 0.01 in Rain Light Rain
9:06 AM 55.4 °F 53.6 °F 94% 29.88 in 9.0 mi Calm Calm - 0.00 in Rain Light Rain
9:53 AM 55.9 °F 53.1 °F 90% 29.88 in 8.0 mi South 3.5 mph - 0.02 in Rain Light Rain
10:35 AM 55.4 °F 53.6 °F 94% 29.87 in 7.0 mi South 4.6 mph - 0.02 in Rain Light Rain
10:53 AM 55.9 °F 53.1 °F 90% 29.88 in 10.0 mi South 4.6 mph - 0.02 in Rain Light Rain
12:53 PM 57.0 °F 52.0 °F 83% 29.87 in 10.0 mi SSW 4.6 mph - 0.05 in Rain Light Rain
1:53 PM 55.9 °F 53.1 °F 90% 29.86 in 10.0 mi Calm Calm - 0.02 in Rain Light Rain
2:53 PM 55.9 °F 53.1 °F 90% 29.84 in 10.0 mi Calm Calm - 0.00 in Rain Light Rain
3:53 PM 57.9 °F 52.0 °F 81% 29.84 in 10.0 mi SSW 5.8 mph - 0.00 in   Overcast
4:53 PM 59.0 °F 51.1 °F 75% 29.83 in 10.0 mi SW 4.6 mph - 0.00 in   Overcast
5:53 PM 57.9 °F 52.0 °F 81% 29.83 in 10.0 mi Calm Calm - N/A   Overcast
6:53 PM 57.9 °F 53.1 °F 84% 29.82 in 10.0 mi SSW 3.5 mph - N/A   Overcast
7:53 PM 57.0 °F 45.0 °F 64% 29.82 in 10.0 mi South 5.8 mph - N/A   Overcast
8:53 PM 55.9 °F 50.0 °F 80% 29.82 in 10.0 mi SSW 4.6 mph - 0.00 in Rain Light Rain
9:17 PM 55.4 °F 51.8 °F 88% 29.81 in 10.0 mi SW 8.1 mph - 0.01 in   Overcast
9:45 PM 55.4 °F 51.8 °F 88% 29.81 in 10.0 mi WSW 4.6 mph - 0.01 in   Overcast
9:53 PM 55.9 °F 52.0 °F 87% 29.82 in 10.0 mi WSW 3.5 mph - 0.01 in   Overcast
10:53 PM 55.9 °F 52.0 °F 87% 29.82 in 10.0 mi SW 4.6 mph - N/A   Overcast
11:53 PM 55.0 °F 52.0 °F 89% 29.82 in 10.0 mi SE 3.5 mph - N/A   Overcast